Location: New Greens
(51.7702°N, 0.3379°W)
Time: 09:52:00
(UTC+00:00)

Envisat - Pass Details

Date: 27 January 2019
Orbit: 764 x 766 km, 98.1° (Epoch: 15 October)

Event Time Altitude Azimuth Distance (km) Brightness Sun altitude
Rises 20:25:05 0° 224° (SW) 3,226 6.6 -34.4°
Reaches altitude 10° 20:29:07 10° 256° (WSW) 2,306 6.1 -35.0°
Maximum altitude 20:30:54 12° 277° (W) 2,190 6.1 -35.3°
Drops below altitude 10° 20:32:41 10° 298° (WNW) 2,312 6.2 -35.5°
Sets 20:36:45 0° 330° (NNW) 3,246 6.8 -36.1°
